Regional Weather Roundup
Issued by NWS Goodland, KS

Home | Current Version | Previous Version | Graphics & Text | Print | Product List | Glossary On
Versions: 1 2 3 4 5 6 7 8 9 10 11 12 13 14 15 16 17 18 19 20 21 22 23 24 25 26 27 28 29 30 31 32 33 34 35 36 37 38 39 40 41 42 43 44 45 46 47 48 49 50
000
ASUS43 KGLD 020259
RWRGLD

GOODLAND FORECAST AREA HOURLY WEATHER ROUNDUP
NATIONAL WEATHER SERVICE GOODLAND KS
800 PM MST SUN MAR 01 2015

...OFFICIAL OBSERVATIONS...

CITY           SKY/WX    TMP DP  RH WIND       PRES   REMARKS
GOODLAND KS    CLOUDY    30  23  75 S5        30.33R
HILL CITY KS   CLOUDY    31  20  63 SW7       30.40R
IMPERIAL NEB     N/A     27  13  55 S3        30.34R
MCCOOK NEB     MOCLDY    33  11  39 S3        30.36R
AKRON CO       CLOUDY    27  18  69 CALM      30.26F
BURLINGTON CO  CLOUDY    29  20  69 S5        30.31R
LIMON CO       LGT SNOW  23  17  78 CALM      30.25S
$$

...UNOFFICIAL OBSERVATIONS...

CITY           SKY/WX    TMP DP  RH WIND       PRES   REMARKS
COLBY KS       CLOUDY    30  25  80 E3        30.35R
GOVE KS          N/A     29  32 100 MISG        N/A
LENORA KS        N/A     30  32 100 S10         N/A
NORTON KS      CLEAR     30  10  43 E3        30.36R
SHARON SPRINGS   N/A     30  24  78 CALM        N/A
KIT CARSON CO    N/A     28  20  72 MISG        N/A
YUMA CO          N/A     27  18  68 NE5         N/A
$$


USA.gov is the U.S. government's official web portal to all federal, state and local government web resources and services.